STARLINK-4332 (53190 NORAD) Tracking and Keplerian Element Data

This shows tracking and keplerian element data for the satellite.

Feedback or suggestion? Click here.




ElementValue
Catalog53190
NameSTARLINK-4332
Epoch Orbit1072
Epoch Day270.14775102
Epoch Year2022
RAAN329.9722
Inclination97.6529
Eccentricity0.0001505
Argument of Perigee130.5107
Mean Anonmoly229.6248
Mean Motion15.01258718
Decay Rate-1.48E-06
L11 53190U 22084B 22270.14775102 -.00000148 00000+0 -69494-5 0 9995
L22 53190 97.6529 329.9722 0001505 130.5107 229.6248 15.01258718 10721

Live tracking and technical data element details for STARLINK-4332 (NORAD 53190). STARLINK-4332 can be tracked NOW for your location showing map with azimuth and elevation plus other details from your city location.

Track the satellite on the map from your city or location and see movement details for azimuth, elevation, latitude, longitude, range, height, and movement on the map or in text.







IsCatalogInMostPopularTable: catalog: 53190, numindb: 9
Update: records affected: 1



GetName: 53190 STARLINK-4332

Hit Count: updated at: Thu, 29 Sep 2022 12:10:57 GMT